Weather History for Meeker, CO

Change the Weather History Date:

Tuesday, January 29, 2013

  Actual Average Record
Temperature  
Mean Temperature 6 °F 21 °F  
Max Temperature 20 °F 34 °F 46 °F (2005)
Min Temperature -9 °F 8 °F -9 °F (2013)
Degree Days  
Heating Degree Days 59 44  
Month to date heating degree days 1613 1302  
Since 1 July heating degree days 4644 4591  
Cooling Degree Days 0 0  
Month to date cooling degree days 0 0  
Year to date cooling degree days 0 0  
Moisture  
Dew Point 7 °F    
Average Humidity 84    
Maximum Humidity 95    
Minimum Humidity 73    
Precipitation  
Precipitation 0.03 in 0.02 in 0.17 in (2002)
Month to date precipitation 0.69 0.82  
Year to date precipitation 0.69 0.82  
Sea Level Pressure  
Sea Level Pressure 29.97 in    
Wind  
Wind Speed 2 mph (SW)    
Max Wind Speed 9 mph    
Max Gust Speed 12 mph    
Visibility 6 miles    
Events Fog , Snow    
T = Trace of Precipitation, MM = Missing Value Source: NWS Daily Summary

Daily Weather History Graph

Daily Weather History Graph

Search for Another Location

Airport:

Trip Planner

Search our weather history database for the weather conditions in past years. The results will help you decide how hot, cold, wet, or windy it might be!

Date:

Astronomy

Jan. 29, 2013 Rise Set
Actual Time 7:22 AM MST 5:27 PM MST
Civil Twilight 6:53 AM MST 5:56 PM MST
Nautical Twilight 6:21 AM MST 6:28 PM MST
Astronomical Twilight 5:49 AM MST 7:00 PM MST
Moon 8:26 PM MST (1/29) 8:21 AM MST (1/29)
Length of Visible Light 11h 02m
Length of Day
10h 04m
Waning Gibbous, 93% of the Moon is Illuminated
Jan 29
Waning Gibbous
Feb 3
Last Quarter
Feb 10
New
Feb 17
First Quarter
Feb 25
Full

Hourly Weather History & Observations

Time (MST) Temp. Windchill Dew Point Humidity Pressure Visibility Wind Dir Wind Speed Gust Speed Precip Events Conditions
12:53 AM 12.9 °F - 10.0 °F 88% 29.94 in 10.0 mi Calm Calm - N/A   Overcast
1:53 AM 7.0 °F - 3.0 °F 84% 29.96 in 10.0 mi Calm Calm - N/A   Overcast
2:53 AM 5.0 °F - 1.0 °F 84% 29.97 in 10.0 mi Calm Calm - N/A   Partly Cloudy
3:53 AM -0.0 °F - -2.0 °F 91% 29.99 in 10.0 mi Calm Calm - N/A   Clear
4:53 AM -4.0 °F - -5.1 °F 95% 30.00 in 10.0 mi Calm Calm - N/A   Clear
5:53 AM -8.0 °F - -11.0 °F 86% 30.02 in 10.0 mi Calm Calm - N/A   Clear
6:53 AM -6.0 °F -16.9 °F -9.9 °F 83% 30.02 in 10.0 mi SSW 4.6 mph - N/A   Partly Cloudy
7:53 AM -2.0 °F -10.1 °F -6.0 °F 83% 30.00 in 10.0 mi ENE 3.5 mph - N/A   Overcast
8:53 AM 1.9 °F - -0.9 °F 88% 29.99 in 10.0 mi Calm Calm - N/A   Overcast
9:53 AM 8.1 °F - 5.0 °F 87% 29.98 in 10.0 mi Calm Calm - N/A   Overcast
10:53 AM 10.0 °F - 5.0 °F 80% 29.97 in 10.0 mi Calm Calm - N/A   Overcast
11:48 AM 14.0 °F - 6.8 °F 73% 29.80 in 2.0 mi Calm Calm - 0.00 in Snow Light Snow
11:53 AM 14.0 °F - 8.1 °F 77% 29.96 in 1.0 mi Calm Calm - 0.00 in Snow Light Snow
12:01 PM 12.2 °F - 8.6 °F 85% 29.79 in 0.8 mi Calm Calm - 0.00 in Snow Light Snow
12:27 PM 12.2 °F 4.3 °F 8.6 °F 85% 29.79 in 1.2 mi SW 4.6 mph - 0.00 in Snow Light Snow
12:53 PM 12.9 °F - 10.0 °F 88% 29.97 in 1.5 mi Calm Calm - 0.00 in Snow Light Snow
1:41 PM 17.6 °F - 10.4 °F 73% 29.78 in 3.0 mi Calm Calm - 0.01 in Snow Light Snow
1:53 PM 18.0 °F - 10.9 °F 74% 29.96 in 9.0 mi Calm Calm - 0.01 in Snow Light Snow
2:05 PM 17.6 °F - 12.2 °F 79% 29.78 in 5.0 mi Calm Calm - 0.00 in Snow Light Snow
2:18 PM 19.4 °F - 12.2 °F 74% 29.78 in 8.0 mi Calm Calm - 0.00 in Snow Light Snow
2:31 PM 17.6 °F 12.3 °F 12.2 °F 79% 29.78 in 9.0 mi SSE 3.5 mph - 0.00 in   Overcast
2:53 PM 17.1 °F - 12.0 °F 81% 29.99 in 5.0 mi Calm Calm - 0.00 in Snow Light Snow
3:53 PM 19.0 °F - 12.0 °F 74% 30.03 in 10.0 mi Calm Calm - 0.00 in   Overcast
4:14 PM 17.6 °F 10.7 °F 10.4 °F 73% 29.82 in 10.0 mi West 4.6 mph - N/A   Partly Cloudy
4:53 PM 16.0 °F 8.8 °F 9.0 °F 74% 30.09 in 10.0 mi SSW 4.6 mph - N/A   Scattered Clouds
5:51 PM 15.8 °F 6.1 °F 8.6 °F 73% 29.87 in 2.5 mi SW 6.9 mph - 0.00 in Snow Light Snow
5:53 PM 15.1 °F 5.2 °F 10.0 °F 80% 30.14 in 2.0 mi SW 6.9 mph - 0.00 in Snow Light Snow
6:06 PM 15.8 °F 8.6 °F 10.4 °F 79% 29.87 in 8.0 mi West 4.6 mph - 0.00 in Snow Light Snow
6:26 PM 15.8 °F 10.2 °F 10.4 °F 79% 29.89 in 10.0 mi WNW 3.5 mph - 0.00 in   Scattered Clouds
6:53 PM 14.0 °F 6.5 °F 9.0 °F 80% 30.18 in 10.0 mi SE 4.6 mph - 0.00 in   Mostly Cloudy
7:53 PM 14.0 °F 3.9 °F 9.0 °F 80% 30.18 in 10.0 mi WSW 6.9 mph - 0.00 in   Mostly Cloudy
8:53 PM 14.0 °F 6.5 °F 10.0 °F 84% 30.19 in 8.0 mi West 4.6 mph - 0.00 in   Overcast
9:07 PM 15.8 °F - 10.4 °F 79% 29.95 in 1.8 mi Calm Calm - 0.00 in Snow Light Snow
9:27 PM 12.2 °F - 8.6 °F 85% 29.96 in 2.5 mi Calm Calm - 0.00 in Snow Light Snow
9:37 PM 12.2 °F 4.3 °F 8.6 °F 85% 29.95 in 5.0 mi SW 4.6 mph - 0.00 in Snow Light Snow
9:53 PM 12.0 °F -0.4 °F 9.0 °F 88% 30.19 in 5.0 mi WSW 9.2 mph - 0.00 in Snow Light Snow
10:07 PM 14.0 °F 8.2 °F 10.4 °F 86% 29.97 in 2.5 mi WSW 3.5 mph - 0.00 in Snow Light Snow
10:12 PM 14.0 °F - 10.4 °F 86% 29.97 in 1.0 mi Calm Calm - 0.00 in Snow Light Snow
10:17 PM 14.0 °F - 10.4 °F 86% 29.97 in 0.5 mi Calm Calm - 0.01 in Fog , Snow Snow
10:29 PM 14.0 °F 8.2 °F 10.4 °F 86% 29.97 in 0.8 mi SW 3.5 mph - 0.01 in Snow Light Snow
10:36 PM 14.0 °F 8.2 °F 10.4 °F 86% 29.98 in 0.8 mi SSW 3.5 mph - 0.02 in Snow Light Snow
10:41 PM 12.2 °F 6.1 °F 10.4 °F 92% 29.98 in 1.2 mi South 3.5 mph - 0.02 in Snow Light Snow
10:45 PM 12.2 °F 6.1 °F 8.6 °F 85% 29.98 in 2.0 mi South 3.5 mph - 0.02 in Snow Light Snow
10:50 PM 10.4 °F 2.2 °F 8.6 °F 92% 29.98 in 5.0 mi SSW 4.6 mph - 0.02 in Snow Light Snow
11:53 PM 9.0 °F -0.9 °F 6.1 °F 88% 30.20 in 10.0 mi West 5.8 mph - 0.00 in   Scattered Clouds